Date String (YYYY-MM-DD hh:mm:ss) UTC,Instrument flags,absolute air pressure of the measurement (hPa),sample flow rate (lpm),inlet stack bypass flow (lpm),air temperature of the measurement (°C),ambient temperature measured by the external sensor (°C),aerosol sample conditioner tube jacket temperature (°C),OPC LED temperature (°C),internal box temperature (°C),relative humidity of the measurement (%),span deviation,mass concentration of particles derived from Lorenz-Mie calculation of OPC scattering (μg/m³),mass concentration of particles derived from Lorenz-Mie calculation of OPC scattering (μg/m³),mass concentration of particles derived from Lorenz-Mie calculation of OPC scattering (μg/m³)
DateTimeUTC,F1_M11,P_M11,Q1_M11,Q2_M11,T1_M11,T2_M11,T3_M11,T4_M11,T5_M11,U1_M11,ZSPAN_M11,X0_M11,X2_M11,X1_M11
2023-10-03 12:00:00,SystemResetWarning,0826.6,5.01,000.00,029.6,028.2,000.0,038.0,031.2,25.7,0000.0,0006.98,0003.63,0003.17
2023-10-03 12:01:00,SystemResetWarning,0826.5,4.99,000.00,029.6,028.2,000.0,038.0,031.2,25.8,0000.0,0007.04,0003.65,0003.18
2023-10-03 12:02:00,SystemResetWarning,0826.4,4.99,000.00,029.6,028.2,000.0,038.0,031.2,25.7,0000.0,0006.99,0003.66,0003.20
2023-10-03 12:03:00,SystemResetWarning,0826.4,5.00,000.00,029.6,028.2,000.0,038.0,031.2,25.7,0000.0,0006.92,0003.66,0003.22
2023-10-03 12:04:00,SystemResetWarning,0826.4,5.00,000.00,029.6,028.2,000.0,038.0,031.2,25.6,0000.0,0006.61,0003.67,0003.23
2023-10-03 12:05:00,SystemResetWarning,0826.4,5.00,000.00,029.6,028.3,000.0,038.0,031.2,25.6,0000.0,0006.48,0003.70,0003.24
2023-10-03 12:06:00,SystemResetWarning,0826.4,5.00,000.00,029.6,028.3,000.0,038.1,031.2,25.6,0000.0,0006.39,0003.67,0003.23
2023-10-03 12:07:00,SystemResetWarning,0826.4,5.00,000.00,029.6,028.3,000.0,038.1,031.2,25.7,0000.0,0006.34,0003.66,0003.22
2023-10-03 12:08:00,SystemResetWarning,0826.3,5.00,000.00,029.6,028.3,000.0,038.1,031.2,25.6,0000.0,0006.27,0003.66,0003.21
2023-10-03 12:09:00,SystemResetWarning,0826.4,5.00,000.00,029.6,028.3,000.0,038.1,031.2,25.5,0000.0,0006.34,0003.68,0003.21
2023-10-03 12:10:00,SystemResetWarning,0826.4,5.00,000.00,029.6,028.3,000.0,038.1,031.2,25.5,0000.0,0005.70,0003.65,0003.18
2023-10-03 12:11:00,SystemResetWarning,0826.4,5.00,000.00,029.6,028.3,000.0,038.1,031.3,25.5,0000.0,0005.81,0003.64,0003.17
2023-10-03 12:12:00,SystemResetWarning,0826.4,5.00,000.00,029.6,028.3,000.0,038.1,031.3,25.4,0000.0,0005.95,0003.64,0003.14
2023-10-03 12:13:00,SystemResetWarning,0826.4,5.00,000.00,029.6,028.3,000.0,038.1,031.3,25.4,0000.0,0006.52,0003.63,0003.13
2023-10-03 12:14:00,SystemResetWarning,0826.4,5.01,000.00,029.6,028.3,000.0,038.1,031.2,25.3,0000.0,0006.97,0003.61,0003.11
2023-10-03 12:15:00,SystemResetWarning,0826.3,5.01,000.00,029.6,028.3,000.0,038.1,031.3,25.3,0000.0,0006.89,0003.59,0003.09
2023-10-03 12:16:00,SystemResetWarning,0826.3,4.99,000.00,029.6,028.3,000.0,038.1,031.3,25.2,0000.0,0007.02,0003.57,0003.06
2023-10-03 12:17:00,SystemResetWarning,0826.3,5.00,000.00,029.6,028.3,000.0,038.1,031.3,25.2,0000.0,0007.33,0003.61,0003.07
2023-10-03 12:18:00,SystemResetWarning,0826.3,4.99,000.00,029.6,028.3,000.0,038.1,031.3,25.1,0000.0,0007.37,0003.62,0003.06
2023-10-03 12:19:00,SystemResetWarning,0826.3,5.00,000.00,029.6,028.3,000.0,038.1,031.3,25.0,0000.0,0007.36,0003.59,0003.02
2023-10-03 12:20:00,SystemResetWarning,0826.4,4.99,000.00,029.6,027.5,000.0,038.1,031.2,24.9,0000.0,0007.14,0003.54,0003.00
2023-10-03 12:21:00,SystemResetWarning,0826.4,5.00,000.00,029.6,025.5,000.0,038.0,031.0,24.9,0000.0,0007.17,0003.55,0003.01
2023-10-03 12:22:00,SystemResetWarning,0826.4,5.00,000.00,029.5,024.7,000.0,038.0,030.8,25.2,0000.0,0007.16,0003.57,0003.04
2023-10-03 12:23:00,SystemResetWarning,0826.3,5.01,000.00,029.3,024.7,000.0,037.9,030.5,25.4,0000.0,0007.11,0003.59,0003.08
2023-10-03 12:24:00,SystemResetWarning,0826.4,5.01,000.00,029.2,025.1,000.0,037.9,030.4,25.5,0000.0,0006.61,0003.59,0003.10
2023-10-03 12:25:00,SystemResetWarning,0826.4,5.00,000.00,029.1,025.5,000.0,037.8,030.4,25.4,0000.0,0006.15,0003.60,0003.10
2023-10-03 12:26:00,SystemResetWarning,0826.4,5.01,000.00,029.0,025.9,000.0,037.8,030.5,25.4,0000.0,0006.23,0003.62,0003.11
2023-10-03 12:27:00,SystemResetWarning,0826.3,5.00,000.00,029.0,026.2,000.0,037.7,030.5,25.4,0000.0,0006.04,0003.61,0003.12
2023-10-03 12:28:00,SystemResetWarning,0826.3,5.00,000.00,029.0,026.5,000.0,037.7,030.5,25.4,0000.0,0005.72,0003.60,0003.14
2023-10-03 12:29:00,SystemResetWarning,0826.4,5.00,000.00,029.0,026.7,000.0,037.7,030.5,25.4,0000.0,0005.98,0003.59,0003.15
2023-10-03 12:30:00,SystemResetWarning,0826.3,5.00,000.00,028.9,026.9,000.0,037.6,030.6,25.5,0000.0,0006.04,0003.63,0003.16
2023-10-03 12:31:00,SystemResetWarning,0826.3,5.00,000.00,028.9,027.0,000.0,037.6,030.6,25.6,0000.0,0006.20,0003.68,0003.18
2023-10-03 12:32:00,SystemResetWarning,0826.3,5.00,000.00,028.9,027.1,000.0,037.6,030.6,25.7,0000.0,0006.38,0003.69,0003.20
2023-10-03 12:33:00,SystemResetWarning,0826.3,5.00,000.00,028.9,027.2,000.0,037.5,030.6,25.7,0000.0,0006.82,0003.71,0003.22
2023-10-03 12:34:00,SystemResetWarning,0826.3,5.00,000.00,029.0,027.3,000.0,037.5,030.6,25.7,0000.0,0006.84,0003.72,0003.23
2023-10-03 12:35:00,SystemResetWarning,0826.2,5.00,000.00,029.0,027.4,000.0,037.5,030.6,25.8,0000.0,0006.84,0003.74,0003.24
2023-10-03 12:36:00,SystemResetWarning,0826.3,5.00,000.00,029.0,027.4,000.0,037.5,030.7,25.8,0000.0,0006.81,0003.75,0003.26
2023-10-03 12:37:00,SystemResetWarning,0826.3,5.00,000.00,029.0,027.5,000.0,037.5,030.7,25.7,0000.0,0006.86,0003.77,0003.28
2023-10-03 12:38:00,SystemResetWarning,0826.3,5.01,000.00,029.0,027.6,000.0,037.5,030.7,25.6,0000.0,0006.99,0003.79,0003.29
2023-10-03 12:39:00,SystemResetWarning,0826.3,5.00,000.00,029.0,027.6,000.0,037.5,030.7,25.6,0000.0,0007.16,0003.81,0003.28
2023-10-03 12:40:00,SystemResetWarning,0826.3,5.00,000.00,029.0,027.6,000.0,037.5,030.8,25.6,0000.0,0006.84,0003.82,0003.28
2023-10-03 12:41:00,SystemResetWarning,0826.3,5.01,000.00,029.0,027.7,000.0,037.5,030.8,25.6,0000.0,0006.69,0003.79,0003.28
2023-10-03 12:42:00,SystemResetWarning,0826.3,5.00,000.00,029.1,027.7,000.0,037.5,030.8,25.6,0000.0,0006.62,0003.76,0003.28
2023-10-03 12:43:00,SystemResetWarning,0826.3,5.00,000.00,029.1,027.7,000.0,037.5,030.8,25.6,0000.0,0006.47,0003.76,0003.27
2023-10-03 12:44:00,SystemResetWarning,0826.2,5.00,000.00,029.1,027.7,000.0,037.5,030.8,25.5,0000.0,0006.09,0003.75,0003.25
2023-10-03 12:45:00,SystemResetWarning,0826.2,5.00,000.00,029.1,027.8,000.0,037.6,030.8,25.4,0000.0,0006.02,0003.75,0003.25
2023-10-03 12:46:00,SystemResetWarning,0826.3,4.99,000.00,029.1,027.8,000.0,037.6,030.8,25.2,0000.0,0007.01,0003.75,0003.25
2023-10-03 12:47:00,SystemResetWarning,0826.3,4.99,000.00,029.1,027.8,000.0,037.6,030.8,25.2,0000.0,0007.29,0003.74,0003.24
2023-10-03 12:48:00,SystemResetWarning,0826.4,4.99,000.00,029.1,027.8,000.0,037.6,030.8,25.3,0000.0,0007.97,0003.74,0003.23
2023-10-03 12:49:00,SystemResetWarning,0826.4,5.00,000.00,029.1,027.8,000.0,037.6,030.8,25.3,0000.0,0007.94,0003.73,0003.24
2023-10-03 12:50:00,SystemResetWarning,0826.4,5.01,000.00,029.2,027.8,000.0,037.6,030.9,25.5,0000.0,0007.90,0003.73,0003.26
2023-10-03 12:51:00,SystemResetWarning,0826.4,5.01,000.00,029.2,027.8,000.0,037.6,030.9,25.4,0000.0,0007.96,0003.74,0003.27
2023-10-03 12:52:00,SystemResetWarning,0826.4,5.00,000.00,029.2,027.8,000.0,037.6,030.9,25.4,0000.0,0008.14,0003.78,0003.30
2023-10-03 12:53:00,SystemResetWarning,0826.3,5.00,000.00,029.2,027.8,000.0,037.6,030.9,25.4,0000.0,0008.16,0003.81,0003.32
2023-10-03 12:54:00,SystemResetWarning,0826.4,5.01,000.00,029.2,027.9,000.0,037.6,030.9,25.0,0000.0,0008.20,0003.83,0003.32
2023-10-03 12:55:00,SystemResetWarning,0826.4,5.00,000.00,029.2,027.9,000.0,037.6,030.9,24.8,0000.0,0008.16,0003.82,0003.33
2023-10-03 12:56:00,SystemResetWarning,0826.4,5.00,000.00,029.2,027.8,000.0,037.6,030.9,24.8,0000.0,0008.18,0003.81,0003.33
2023-10-03 12:57:00,SystemResetWarning,0826.4,5.00,000.00,029.2,027.8,000.0,037.7,030.9,24.8,0000.0,0007.79,0003.82,0003.34
2023-10-03 12:58:00,SystemResetWarning,0826.4,5.00,000.00,029.2,027.9,000.0,037.7,030.9,24.8,0000.0,0007.64,0003.83,0003.35
2023-10-03 12:59:00,SystemResetWarning,0826.3,5.00,000.00,029.2,027.8,000.0,037.7,030.8,24.9,0000.0,0006.96,0003.86,0003.36
